AirNav   Textron
 
 512 users online  

66TS KHOU-TV Heliport
Houston, Texas, USA

GOING TO HOUSTON?


FAA INFORMATION EFFECTIVE 14 SEPTEMBER 2017

Location

FAA Identifier: 66TS
Lat/Long: 29-45-37.8210N / 095-23-14.7790W
29-45.630350N / 095-23.246317W
29.7605058 / -95.3874386
(estimated)
Elevation: 70 ft. / 21 m (estimated)
Variation: 06E (1985)
From city: 1 mile W of HOUSTON, TX
Time zone: UTC -5 (UTC -6 during Standard Time)
Zip code: 77019

Heliport Operations

Heliport use: Private use. Permission required prior to landing
Activation date: 02/1987
Control tower: no
ARTCC: HOUSTON CENTER
FSS: MONTGOMERY COUNTY FLIGHT SERVICE STATION
FOR FP FILING CALL CXO FSS 1-800-833-5602.
Attendance: CONTINUOUS
Wind indicator: yes
Segmented circle: no
Lights: ACTVT PERIMETER LGTS - 122.85.

Heliport Communications

WX ASOS at HOU (9 nm SE): PHONE 713-847-1462
WX ASOS at IAH (14 nm N): PHONE 281-443-6397
WX AWOS-3 at AXH (16 nm S): 123.625 (281-431-6572)
WX ASOS at LVJ (16 nm SE): 118.525 (281-992-1853)
WX ASOS at SGR (16 nm SW): 118.125 (281-242-7605)

Nearby radio navigation aids

VOR radial/distance  VOR name  Freq  Var
HUBr312/8.5HOBBY VOR/DME117.1005E
IAHr185/12.0HUMBLE VORTAC116.6005E
MHFr284/35.8TRINITY VOR/DME113.6007E

 
NDB name  Hdg/Dist  Freq  Var  ID
NIXIN208/16.632605EBVP -... ...- .--.
SANJAC283/17.434705EJPA .--- .--. .-

Heliport Services

Runway Information

Helipad H1

Dimensions: 50 x 50 ft. / 15 x 15 m
Surface: concrete
ROOFTOP.
Runway edge lights: PAD HAS PERIMETER LIGHTS/FLOODLIGHTS.
Operational restrictions: INGRESS/EGRESS 270 DEGREES AND 090 DEGREES.
Traffic pattern: leftleft

Heliport Ownership and Management from official FAA records

Ownership: Privately-owned
Owner: BELO/GULF TV BROADCASTING
1945 ALLEN PARKWAY
HOUSTON, TX 77109
Phone 713-526-1111
Manager: FRANK DAVIS
1945 ALLEN PARKWAY
HOUSTON, TX 77109
Phone 713-526-1111

Heliport Operational Statistics

Aircraft based on the field: 1
Helicopters: 1
    

Additional Remarks

A52-H1 40' FLAG POLES 100'W; 170' BLDG 150' EAST; 170' BLDG/TOWER 150' SOUTH.

Instrument Procedures

There are no published instrument procedures at 66TS.

Some nearby airports with instrument procedures:

KHOU - William P Hobby Airport (9 nm SE)
KIAH - George Bush Intercontinental/Houston Airport (14 nm N)
KEFD - Ellington Airport (15 nm SE)
KIWS - West Houston Airport (15 nm W)
KAXH - Houston Southwest Airport (16 nm S)
KLVJ - Pearland Regional Airport (16 nm SE)
KSGR - Sugar Land Regional Airport (16 nm SW)
T41 - La Porte Municipal Airport (18 nm E)
 
Loc | Ops | Rwys | IFR | FBO | Links
Com | Nav | Svcs | Stats | Notes


 
Area around 66TS (KHOU-TV Heliport)
 
Road maps at: MapQuest Bing Google
 
Aerial photo
No photo
 
Sectional chart

 
Airport distance calculator
Flying to KHOU-TV Heliport? Find the distance to fly.

From to 66TS

Sunrise and sunset
Times for 19-Sep-2017
 Local
(UTC-5)
 Zulu
(UTC)
Morning civil twilight06:4511:45
Sunrise07:0912:09
Sunset19:2100:21
Evening civil twilight19:4500:45

Current date and time
Zulu (UTC)  20-Sep-2017 04:53:40
Local (UTC-5)  19-Sep-2017 23:53:40
 
METAR
KHOU 
9nm SE 
200353Z 15004KT 10SM FEW030 BKN250 27/24 A2990 RMK AO2 SLP128 T02720244
KIAH 
14nm N 
200353Z 17005KT 10SM FEW180 BKN250 27/24 A2990 RMK AO2 SLP124 T02720239
KEFD 
15nm SE 
200350Z 13005KT 10SM FEW040 BKN250 28/23 A2991
KAXH 
16nm S 
200435Z AUTO 00000KT 7SM CLR 24/24 A2991 RMK AO2 T02410235
KSGR 
16nm SW 
200353Z AUTO 15007KT 10SM CLR 27/24 A2990 RMK AO2 SLP124 T02670244
KLVJ 
16nm SE 
200353Z AUTO 14004KT 9SM CLR 28/24 A2992 RMK AO2 SLP131 T02830244
TAF
KHOU 
9nm SE 
200307Z 2003/2024 17005KT P6SM SCT090 BKN250 FM201400 18008KT P6SM SCT030 FM201800 18010KT P6SM VCSH SCT025 BKN040
KIAH 
14nm N 
200307Z 2003/2106 17006KT P6SM FEW180 BKN250 FM201100 17004KT 6SM BR SCT015 FM201500 17008KT P6SM BKN025 FM201800 18010KT P6SM VCSH SCT025 BKN040 FM210100 15006KT P6SM FEW250
KEFD 
15nm SE 
200400Z 2004/2110 VRB06KT 9999 SCT015 QNH2989INS BECMG 2011/2012 16006KT 9999 FEW020 QNH2991INS BECMG 2017/2018 18009KT 9999 SCT030 QNH2989INS BECMG 2105/2106 VRB06KT 9999 BKN015 QNH2991INS TX34/2021Z TN24/2010Z
KSGR 
16nm SW 
191722Z 1918/2018 19008KT P6SM VCSH SCT025 BKN250 FM192300 16007KT P6SM SCT035 BKN250 FM200300 16004KT P6SM SCT015 FM201400 18007KT P6SM SCT030
NOTAMs
Click for the latest NOTAMs
NOTAMs are issued by the DoD/FAA and will open in a separate window not controlled by AirNav.

 

 
 

Would you like to see your business listed on this page?

 If your business provides an interesting product or service to pilots, flight crews, aircraft, or users of the KHOU-TV Heliport, you should consider listing it here.  To start the listing process, click on the button below
 
Add a business
 

Other Pages about KHOU-TV Heliport

Update a link
 
Copyright © AirNav, LLC. All rights reserved. Privacy Policy  Contact